Time,TemperatureF,DewpointF,PressureIn,WindDirection,WindDirectionDegrees,WindSpeedMPH,WindSpeedGustMPH,Humidity,HourlyPrecipIn,Conditions,Clouds,dailyrainin,SoftwareType,DateUTC
2013-11-25 00:22:00,24.0,4.0,30.34,WSW,253,5.0,11.0,42,0.00,,,0.00,,2013-11-25 05:22:00,
2013-11-25 00:33:00,24.0,4.0,30.34,WSW,253,5.0,11.0,42,0.00,,,0.00,,2013-11-25 05:33:00,
2013-11-25 00:43:00,24.0,4.0,30.34,WSW,253,5.0,11.0,42,0.00,,,0.00,,2013-11-25 05:43:00,
2013-11-25 00:52:00,24.0,4.0,30.34,WSW,253,5.0,11.0,42,0.00,,,0.00,,2013-11-25 05:52:00,
2013-11-25 01:22:00,24.0,5.0,30.35,WNW,289,6.0,10.0,44,0.00,,,0.00,,2013-11-25 06:22:00,
2013-11-25 01:52:00,24.0,6.0,30.35,WNW,302,2.0,6.0,45,0.00,,,0.00,,2013-11-25 06:52:00,
2013-11-25 02:22:00,23.0,6.0,30.34,WNW,290,1.0,3.0,47,0.00,,,0.00,,2013-11-25 07:22:00,
2013-11-25 02:52:00,23.0,6.0,30.35,WNW,288,1.0,3.0,47,0.00,,,0.00,,2013-11-25 07:52:00,
2013-11-25 03:11:00,23.0,6.0,30.35,WNW,295,7.0,10.0,48,0.00,,,0.00,,2013-11-25 08:11:00,
2013-11-25 03:22:00,23.0,6.0,30.35,WNW,295,7.0,10.0,48,0.00,,,0.00,,2013-11-25 08:22:00,
2013-11-25 03:42:00,23.0,6.0,30.36,WSW,256,3.0,3.0,48,0.00,,,0.00,,2013-11-25 08:42:00,
2013-11-25 03:52:00,23.0,6.0,30.36,West,278,1.0,3.0,48,0.00,,,0.00,,2013-11-25 08:52:00,
2013-11-25 04:11:00,23.0,6.0,30.36,WNW,294,3.0,10.0,48,0.00,,,0.00,,2013-11-25 09:11:00,
2013-11-25 04:22:00,23.0,6.0,30.36,WNW,294,3.0,10.0,48,0.00,,,0.00,,2013-11-25 09:22:00,
2013-11-25 04:53:00,23.0,7.0,30.37,West,264,3.0,3.0,49,0.00,,,0.00,,2013-11-25 09:53:00,
2013-11-25 05:23:00,22.0,6.0,30.39,WNW,297,0.0,3.0,49,0.00,,,0.00,,2013-11-25 10:23:00,
2013-11-25 05:34:00,22.0,6.0,30.39,WNW,297,0.0,3.0,49,0.00,,,0.00,,2013-11-25 10:34:00,
2013-11-25 05:42:00,22.0,6.0,30.39,WNW,297,0.0,3.0,49,0.00,,,0.00,,2013-11-25 10:42:00,
2013-11-25 05:53:00,22.0,6.0,30.39,WNW,297,0.0,3.0,49,0.00,,,0.00,,2013-11-25 10:53:00,
2013-11-25 06:22:00,22.0,5.0,30.40,WNW,295,2.0,8.0,48,0.00,,,0.00,,2013-11-25 11:22:00,
2013-11-25 06:52:00,22.0,5.0,30.41,West,281,0.0,5.0,48,0.00,,,0.00,,2013-11-25 11:52:00,
2013-11-25 07:02:00,22.0,5.0,30.41,West,281,0.0,5.0,48,0.00,,,0.00,,2013-11-25 12:02:00,
2013-11-25 07:12:00,22.0,5.0,30.41,West,281,0.0,5.0,48,0.00,,,0.00,,2013-11-25 12:12:00,
2013-11-25 07:22:00,22.0,5.0,30.41,West,281,0.0,5.0,48,0.00,,,0.00,,2013-11-25 12:22:00,
2013-11-25 07:52:00,22.0,6.0,30.43,WSW,257,1.0,3.0,50,0.00,,,0.00,,2013-11-25 12:52:00,
2013-11-25 08:12:00,23.0,6.0,30.44,West,263,1.0,5.0,47,0.00,,,0.00,,2013-11-25 13:12:00,
2013-11-25 08:22:00,23.0,6.0,30.44,West,263,1.0,5.0,47,0.00,,,0.00,,2013-11-25 13:22:00,
2013-11-25 08:52:00,24.0,6.0,30.45,WNW,284,3.0,5.0,45,0.00,,,0.00,,2013-11-25 13:52:00,
2013-11-25 09:11:00,25.0,6.0,30.45,West,277,3.0,8.0,44,0.00,,,0.00,,2013-11-25 14:11:00,
2013-11-25 09:22:00,25.0,6.0,30.45,West,277,3.0,8.0,44,0.00,,,0.00,,2013-11-25 14:22:00,
2013-11-25 09:42:00,27.0,7.0,30.45,NW,310,5.0,7.0,42,0.00,,,0.00,,2013-11-25 14:42:00,
2013-11-25 09:52:00,28.0,7.0,30.45,WNW,286,0.0,9.0,41,0.00,,,0.00,,2013-11-25 14:52:00,
2013-11-25 10:11:00,29.0,7.0,30.45,WNW,295,3.0,8.0,39,0.00,,,0.00,,2013-11-25 15:11:00,
2013-11-25 10:22:00,29.0,7.0,30.45,WNW,295,3.0,8.0,39,0.00,,,0.00,,2013-11-25 15:22:00,
2013-11-25 10:33:00,29.0,7.0,30.45,WNW,295,3.0,8.0,39,0.00,,,0.00,,2013-11-25 15:33:00,
2013-11-25 10:54:00,31.0,7.0,30.45,SW,221,2.0,6.0,36,0.00,,,0.00,,2013-11-25 15:54:00,
2013-11-25 11:23:00,32.0,7.0,30.44,SSW,211,0.0,7.0,35,0.00,,,0.00,,2013-11-25 16:23:00,
2013-11-25 11:43:00,32.0,7.0,30.43,SW,219,3.0,7.0,35,0.00,,,0.00,,2013-11-25 16:43:00,
2013-11-25 11:52:00,32.0,7.0,30.43,SW,219,3.0,7.0,35,0.00,,,0.00,,2013-11-25 16:52:00,
2013-11-25 12:13:00,34.0,9.0,30.42,SW,232,1.0,6.0,34,0.00,,,0.00,,2013-11-25 17:13:00,
2013-11-25 12:22:00,34.0,9.0,30.42,SW,232,1.0,6.0,34,0.00,,,0.00,,2013-11-25 17:22:00,
2013-11-25 12:43:00,34.0,9.0,30.41,WSW,243,4.0,6.0,34,0.00,,,0.00,,2013-11-25 17:43:00,
2013-11-25 12:52:00,34.0,9.0,30.41,WSW,243,4.0,6.0,34,0.00,,,0.00,,2013-11-25 17:52:00,
2013-11-25 13:02:00,34.0,9.0,30.41,WSW,243,4.0,6.0,34,0.00,,,0.00,,2013-11-25 18:02:00,
2013-11-25 13:42:00,36.0,10.0,30.37,South,184,3.0,5.0,33,0.00,,,0.00,,2013-11-25 18:42:00,
2013-11-25 13:52:00,36.0,10.0,30.37,SSW,205,3.0,7.0,33,0.00,,,0.00,,2013-11-25 18:52:00,
2013-11-25 14:11:00,36.0,10.0,30.36,West,266,5.0,6.0,34,0.00,,,0.00,,2013-11-25 19:11:00,
2013-11-25 14:22:00,36.0,10.0,30.36,West,266,5.0,6.0,34,0.00,,,0.00,,2013-11-25 19:22:00,
2013-11-25 14:52:00,36.0,10.0,30.35,West,280,3.0,4.0,34,0.00,,,0.00,,2013-11-25 19:52:00,
2013-11-25 15:22:00,36.0,10.0,30.35,SSW,213,3.0,8.0,34,0.00,,,0.00,,2013-11-25 20:22:00,
2013-11-25 15:32:00,36.0,10.0,30.35,SSW,213,3.0,8.0,34,0.00,,,0.00,,2013-11-25 20:32:00,
2013-11-25 15:42:00,36.0,10.0,30.35,SSW,213,3.0,8.0,34,0.00,,,0.00,,2013-11-25 20:42:00,
2013-11-25 15:52:00,36.0,10.0,30.35,SSW,213,3.0,8.0,34,0.00,,,0.00,,2013-11-25 20:52:00,
2013-11-25 16:22:00,35.0,11.0,30.36,SSW,203,1.0,6.0,37,0.00,,,0.00,,2013-11-25 21:22:00,
2013-11-25 16:44:00,35.0,11.0,30.36,SW,219,2.0,8.0,37,0.00,,,0.00,,2013-11-25 21:44:00,
2013-11-25 16:54:00,35.0,11.0,30.36,SSW,209,3.0,11.0,37,0.00,,,0.00,,2013-11-25 21:54:00,
2013-11-25 17:23:00,34.0,10.0,30.35,SW,231,3.0,6.0,36,0.00,,,0.00,,2013-11-25 22:23:00,
2013-11-25 17:53:00,34.0,11.0,30.35,SSW,203,4.0,4.0,37,0.00,,,0.00,,2013-11-25 22:53:00,
2013-11-25 18:02:00,34.0,11.0,30.35,SSW,203,4.0,4.0,37,0.00,,,0.00,,2013-11-25 23:02:00,
2013-11-25 18:22:00,34.0,11.0,30.35,SW,214,3.0,10.0,38,0.00,,,0.00,,2013-11-25 23:22:00,
2013-11-25 18:42:00,34.0,12.0,30.35,SSE,158,3.0,10.0,39,0.00,,,0.00,,2013-11-25 23:42:00,
2013-11-25 18:52:00,34.0,12.0,30.35,SSE,158,3.0,10.0,39,0.00,,,0.00,,2013-11-25 23:52:00,
2013-11-25 19:02:00,34.0,12.0,30.35,SSE,158,3.0,10.0,39,0.00,,,0.00,,2013-11-26 00:02:00,
2013-11-25 19:22:00,33.0,11.0,30.35,SSW,210,3.0,5.0,40,0.00,,,0.00,,2013-11-26 00:22:00,
2013-11-25 19:32:00,33.0,11.0,30.35,SSW,210,3.0,5.0,40,0.00,,,0.00,,2013-11-26 00:32:00,
2013-11-25 19:42:00,33.0,11.0,30.35,SSW,210,3.0,5.0,40,0.00,,,0.00,,2013-11-26 00:42:00,
2013-11-25 19:52:00,33.0,11.0,30.34,SW,232,3.0,10.0,40,0.00,,,0.00,,2013-11-26 00:52:00,
2013-11-25 20:21:00,33.0,11.0,30.34,SSW,192,5.0,8.0,39,0.00,,,0.00,,2013-11-26 01:21:00,
2013-11-25 20:42:00,33.0,11.0,30.34,SSW,198,3.0,8.0,39,0.00,,,0.00,,2013-11-26 01:42:00,
2013-11-25 20:52:00,33.0,11.0,30.34,SSW,198,3.0,8.0,39,0.00,,,0.00,,2013-11-26 01:52:00,
2013-11-25 21:02:00,33.0,11.0,30.34,SSW,198,3.0,8.0,39,0.00,,,0.00,,2013-11-26 02:02:00,
2013-11-25 21:22:00,33.0,11.0,30.32,South,186,0.0,6.0,39,0.00,,,0.00,,2013-11-26 02:22:00,
2013-11-25 21:32:00,33.0,11.0,30.32,South,186,0.0,6.0,39,0.00,,,0.00,,2013-11-26 02:32:00,
2013-11-25 21:42:00,33.0,11.0,30.32,South,186,0.0,6.0,39,0.00,,,0.00,,2013-11-26 02:42:00,
2013-11-25 21:52:00,33.0,11.0,30.32,SSW,201,6.0,12.0,39,0.00,,,0.00,,2013-11-26 02:52:00,
2013-11-25 22:11:00,33.0,11.0,30.33,SSW,212,5.0,9.0,39,0.00,,,0.00,,2013-11-26 03:11:00,
2013-11-25 22:22:00,33.0,11.0,30.33,SSW,212,5.0,9.0,39,0.00,,,0.00,,2013-11-26 03:22:00,
2013-11-25 22:44:00,33.0,11.0,30.32,South,191,2.0,5.0,40,0.00,,,0.00,,2013-11-26 03:44:00,
2013-11-25 22:54:00,33.0,11.0,30.31,SSW,201,4.0,4.0,40,0.00,,,0.00,,2013-11-26 03:54:00,
2013-11-25 23:13:00,33.0,12.0,30.31,SSW,204,0.0,5.0,41,0.00,,,0.00,,2013-11-26 04:13:00,
2013-11-25 23:23:00,33.0,12.0,30.31,SW,228,7.0,8.0,41,0.00,,,0.00,,2013-11-26 04:23:00,
2013-11-25 23:34:00,33.0,12.0,30.31,SW,228,7.0,8.0,41,0.00,,,0.00,,2013-11-26 04:34:00,
2013-11-25 23:53:00,33.0,12.0,30.30,South,182,5.0,6.0,42,0.00,,,0.00,,2013-11-26 04:53:00,